This is the latest recevied weather packets stored in our database for station/object WX7FGZ-5. If no packets are shown the sender has not sent any weather packets the latest 10 day(s).
| Time | Temp. | Humidity | Pressure | Rain* | Wind** | Luminosity | Snow |
|---|---|---|---|---|---|---|---|
| 1777752470 | 17.78° C | 20% | 1024.6 hPa | 0 mm | - | 1025 W/m² | - |
| 1777752170 | 17.78° C | 19% | 1024.6 hPa | 0 mm | - | 1032 W/m² | - |
| 1777751816 | 16.67° C | 21% | 1024.6 hPa | 0 mm | - | 1035 W/m² | - |
| 1777751516 | 17.78° C | 20% | 1024.7 hPa | 0 mm | - | 1035 W/m² | - |
| 1777751215 | 16.67° C | 22% | 1024.8 hPa | 0 mm | - | 1034 W/m² | - |
| 1777750915 | 16.67° C | 22% | 1024.8 hPa | 0 mm | - | 1037 W/m² | - |
| 1777750316 | 16.67° C | 23% | 1024.9 hPa | 0 mm | - | 1053 W/m² | - |
| 1777750020 | 16.67° C | 24% | 1024.9 hPa | 0 mm | - | 1035 W/m² | - |
| 1777749633 | 16.67° C | 23% | 1025 hPa | 0 mm | - | 1051 W/m² | - |
| 1777749331 | 17.22° C | 24% | 1025.1 hPa | 0 mm | - | 1049 W/m² | - |
| 1777749031 | 16.67° C | 23% | 1025.2 hPa | 0 mm | - | 1044 W/m² | - |
| 1777748732 | 16.67° C | 23% | 1025.3 hPa | 0 mm | - | 1009 W/m² | - |
| 1777748432 | 16.11° C | 25% | 1025.3 hPa | 0 mm | - | 1028 W/m² | - |
| 1777748131 | 15.56° C | 24% | 1025.5 hPa | 0 mm | - | 1042 W/m² | - |
| 1777747866 | 15.56° C | 22% | 1025.5 hPa | 0 mm | - | 1039 W/m² | - |
| 1777747831 | 15.56° C | 22% | 1025.5 hPa | 0 mm | - | 1039 W/m² | - |
| 1777747239 | 15.56° C | 23% | 1025.8 hPa | 0 mm | - | 1028 W/m² | - |
| 1777746631 | 15.56° C | 24% | 1025.9 hPa | 0 mm | - | 1011 W/m² | - |
| 1777746031 | 16.11° C | 22% | 1026.2 hPa | 0 mm | - | 1000 W/m² | - |
| 1777745758 | 15° C | 23% | 1026.2 hPa | 0 mm | - | 995 W/m² | - |
| 1777743391 | 15° C | 22% | 1026.5 hPa | 0 mm | - | 953 W/m² | - |
| 1777742393 | 14.44° C | 23% | 1026.4 hPa | 0 mm | - | 898 W/m² | - |
| 1777742194 | 14.44° C | 23% | 1026.4 hPa | 0 mm | - | 898 W/m² | - |
| 1777741891 | 14.44° C | 22% | 1026.5 hPa | 0 mm | - | 870 W/m² | - |
| 1777741591 | 13.89° C | 23% | 1026.3 hPa | 0 mm | - | 861 W/m² | - |
* Rain latest hour (hover to see other rain measurements)
** Current wind speed in m/s (hover to see current wind gust speed)